This is the latest recevied weather packets stored in our database for station/object SP3SWJ-13. If no packets are shown the sender has not sent any weather packets the latest 10 day(s).
| Time | Temp. | Humidity | Pressure | Rain* | Wind** | Luminosity | Snow |
|---|---|---|---|---|---|---|---|
| 1778047435 | 11.67° C | 81% | 995.5 hPa | - | - | 64 W/m² | - |
| 1778047134 | 11.67° C | 81% | 995.5 hPa | - | - | 51 W/m² | - |
| 1778046833 | 11.67° C | 81% | 995.5 hPa | - | - | 43 W/m² | - |
| 1778046532 | 11.67° C | 81% | 995.5 hPa | - | - | 47 W/m² | - |
| 1778046232 | 11.67° C | 80% | 995.5 hPa | - | - | 37 W/m² | - |
| 1778045931 | 11.67° C | 80% | 995.4 hPa | - | - | 30 W/m² | - |
| 1778045630 | 11.67° C | 80% | 995.3 hPa | - | - | 40 W/m² | - |
| 1778045329 | 11.67° C | 80% | 995.3 hPa | - | - | 42 W/m² | - |
| 1778045028 | 11.67° C | 80% | 995 hPa | - | - | 41 W/m² | - |
| 1778044727 | 11.67° C | 80% | 995.3 hPa | - | - | 43 W/m² | - |
| 1778044426 | 11.67° C | 80% | 995.2 hPa | - | - | 63 W/m² | - |
| 1778044125 | 11.11° C | 80% | 995.1 hPa | - | - | 105 W/m² | - |
| 1778043824 | 11.11° C | 81% | 995 hPa | - | - | 111 W/m² | - |
| 1778043523 | 11.11° C | 81% | 995.3 hPa | - | - | 69 W/m² | - |
| 1778043222 | 11.11° C | 82% | 995.4 hPa | - | - | 39 W/m² | - |
| 1778042921 | 11.11° C | 82% | 995.4 hPa | - | - | 35 W/m² | - |
| 1778042621 | 11.11° C | 82% | 995.6 hPa | - | - | 30 W/m² | - |
| 1778042319 | 11.11° C | 82% | 995.5 hPa | - | - | 31 W/m² | - |
| 1778042018 | 11.11° C | 83% | 995.3 hPa | - | - | 31 W/m² | - |
| 1778041717 | 11.11° C | 82% | 995.3 hPa | - | - | 28 W/m² | - |
| 1778041417 | 11.11° C | 83% | 995.4 hPa | - | - | 26 W/m² | - |
| 1778041116 | 11.11° C | 83% | 995.5 hPa | - | - | 19 W/m² | - |
| 1778040815 | 10.56° C | 83% | 995.6 hPa | - | - | 14 W/m² | - |
| 1778040515 | 10.56° C | 83% | 995.6 hPa | - | - | 13 W/m² | - |
| 1778040213 | 10.56° C | 83% | 995.6 hPa | - | - | 12 W/m² | - |
* Rain since midnight (hover to see other rain measurements)
** Current wind speed in m/s (hover to see current wind gust speed)